C/2006 VZ13 (LINEAR)

Epoch 2007 Aug. 8.0 TT = JDT 2454320.5  

T 2007 Aug. 10.89012 TT                                 Nakano

q   1.0152616            (2000.0)            P               Q

z  -0.0001204      Peri.  174.11296     -0.33812398     -0.68205325

 +/-0.0000118      Node    66.02755     -0.88981065     +0.45605925

e   1.0001222      Incl.  134.79315     -0.30644606     -0.57167589

From 1017 observations 2006 Nov. 13-2007 Aug. 14, mean residual 0".66.

   Nongravitational parameters A1 = +3.34 +/- 0.10, A2 = -1.3491 +/- 0.1038.

   (1/a)org.= -0.000043, (1/a)fut.= +0.000200 (+/-0.000012), Q= 7.

Residuals in seconds of arc 

2006/                     070630 J47  0.0   0.4-    070714 A01  0.0   0.1-  

061113 704  0.3-  0.0     070630 J47  0.6+  0.6-    070714 J48  1.9+  1.3-  

061113 704  0.0   0.2+    070630 232  0.2-  0.3-    070714 J48 (4.4-  9.3-) 

061113 704  0.8-  1.3+    070630 232  0.5-  0.8+    070714 J48 (3.3+  1.3+) 

061113 704  1.0+  0.7+    070630 232  0.1+  0.5+    070715 H45  0.1+  0.1+  

061113 704  0.4+  0.4+    070630 D35  0.1-  0.7-    070715 H45  0.1-  0.3+  

061114 G96  0.4+  0.2+    070630 D35  0.1-  0.9-    070715 H45  0.1+  0.1+  

061114 G96  0.2+  0.2-    070630 D35  0.3-  0.7-    070715 H45  0.2+  0.2+  

061114 704  0.4+  0.8+    070630 D35  0.3-  0.8-    070715 H45  0.1+  0.0   

061114 G96  0.0   0.1-    070630 D35  0.1-  0.7-    070715 H45  0.2+  0.1+  

061114 G96  0.6+  0.3+    070630 D35  0.1-  0.6-    070715 H06  0.0   0.4+  

061114 704  0.4+  0.6+    070630 D35  0.2+  0.7-    070715 H06  0.7-  0.4+  

061114 704  0.5-  0.4+    070630 D35  0.3-  1.0-    070715 850  0.8+  0.1-  

061114 704  0.7+  0.2+    070630 D35  0.0   0.6-    070715 850  0.2+  0.2+  

061114 854  1.0+  0.1-    070630 D35  0.2-  0.7-    070715 850  0.1+  0.1+  

061114 854  0.7+  0.2+    070630 D35  0.1-  0.7-    070715 850  0.1+  0.6+  

061114 854  1.2-  0.6+    070630 D35  0.1-  1.0-    070715 850  0.4-  0.2+  

061114 143  0.3+  0.4+    070630 D35  0.4-  0.9-    070715 850  0.3+  0.5+  

061114 143  0.1+  0.2+    070630 D35  0.2-  0.7-    070715 850  1.7+  0.2+  

061114 595  0.7+  0.1+    070630 D35  0.2-  1.2-    070715 372  0.5-  1.0+  

061114 595  0.3+  0.1-    070630 D35  0.2-  1.1-    070715 372  0.4+  0.7-  

061114 595  0.3+  0.3+    070630 D35  0.2-  1.1-    070715 372  0.0   0.8-  

061116 704  1.3+  1.1+    070630 D35  0.6+  1.0-    070715 473  0.2+  0.2-  

061116 448  0.7+  0.5-    070630 D35  0.3-  1.0-    070715 235  0.1+  0.1-  

061116 G96  0.2+  0.3-    070630 D35  0.2-  0.9-    070715 473  0.4-  0.4+  

061116 704  1.0+  0.6+    070630 213  0.7+  0.3+    070715 473  0.1+  0.0   

061116 G96  0.3+  0.1-    070630 213  0.3+  0.8+    070715 J51  0.4-  0.1+  

061116 H05  1.0+  0.2+    070630 213  0.7+  0.3+    070715 A27  1.4+  0.5-  

061116 448  0.4+  0.0     070630 939  0.2+  0.1-    070715 J48 (1.1+  2.4+) 

061116 704 (2.7+  0.1+)   070630 939  0.3+  0.2-    070715 J48 (1.0+  2.1-) 

061116 G96  0.1+  0.2-    070630 939  0.3+  0.3-    070715 J48 (1.8+  4.1+) 

061116 G96  0.2+  0.2-    070702 442  0.4-  0.1+    070715 J48 (3.1+  1.3-) 

061116 448  0.4+  0.6-    070702 442  0.5-  0.8+    070715 J48 (3.0+  0.6-) 

061116 704  1.6+  0.5+    070702 442  0.1+  0.5+    070715 J48 (2.1+  1.5-) 

061116 H05  0.4+  0.6+    070702 442  1.0-  0.2-    070715 J48 (3.3+  0.7+) 

061116 H05  0.4+  0.4+    070702 D35  0.0   0.8-    070715 A27  0.1-  0.5-  

061116 673  0.2+  0.4+    070702 D35  0.1+  0.6-    070715 J48 (3.5+  3.2+) 

061116 673  0.3+  0.5+    070702 D35  0.0   0.9-    070715 J48 (3.0+  0.4-) 

061116 673  0.2+  0.3+    070702 D35  0.1-  0.7-    070715 A27  0.0   0.7-  

061116 673  0.4+  0.3+    070702 D35  0.0   0.7-    070715 J51  0.1+  0.2+  

061128 J77  0.1+  0.3+    070702 D35  0.1-  0.9-    070715 A27  0.4-  0.3-  

061128 J77  0.4+  0.1+    070702 D35  0.3-  0.9-    070715 J48 (0.6-  3.6-) 

061128 J77  0.3+  0.5-    070702 D35  1.4-  0.6-    070715 J48  0.2-  1.2-  

061128 J77  0.5+  0.5-    070702 D35  0.2-  0.9-    070715 J48 (0.6+  4.1+) 

061128 J77  0.0   0.8-    070702 D35 (2.2-  0.1-)   070715 J48  1.8-  1.4-  

061201 693  0.1+  0.2-    070702 D35  0.3-  0.8-    070715 J48  0.3+  1.4-  

061201 693  0.0   0.1+    070702 D35  0.3-  0.7-    070715 J48  0.4+  1.5+  

061201 693  0.3-  0.2-    070702 D35  0.2-  0.8-    070715 J51  0.6-  0.2-  

061201 693  0.1+  0.3-    070702 D35 (0.8-  4.3-)   070715 J48  1.1+  0.1-  

061202 693  0.1+  0.4-    070702 D35  0.2-  0.9-    070715 J48 (5.0+  0.2+) 

061202 693  0.1+  0.5-    070702 213  0.5+  0.5+    070715 J48  0.1-  0.5+  

061202 693  0.1+  0.2-    070702 213  0.5+  0.6+    070715 J48 (3.9+  0.3+) 

061211 561  0.2+  0.5-    070702 213  0.6+  0.7+    070715 J48 (2.5+  0.6-) 

061211 561 (2.3-  6.6-)   070702 J49  1.3-  0.2+    070715 J48  0.9+  0.9-  

061211 561  0.0   0.7-    070702 J49  1.3-  1.2+    070715 J48  1.1-  0.7+  

061211 204  0.2-  0.7-    070702 J49  1.5-  0.2+    070715 J48  0.5-  0.2-  

061211 204  0.2-  0.8-    070702 458  0.0   0.4+    070715 J48 (1.5+  2.2+) 

061212 704  0.0   0.3+    070702 458  0.1-  0.2+    070715 A21  0.1+  0.5+  

061212 704  0.0   0.4-    070702 458  0.3+  0.0     070715 A21  0.8+  0.6+  

061212 704  0.5-  0.6-    070704 J67  0.1-  0.2+    070715 A21  0.3-  1.1+  

061212 704  0.5-  0.4-    070704 J67  0.2+  0.1+    070716 850  0.1-  0.0   

061212 704  0.8-  0.0     070704 J67  0.0   0.3+    070716 850  0.6+  0.2-  

061212 104 (3.3-  2.6-)   070704 B20  0.1+  0.7+    070716 473  0.3+  0.0   

061212 104  1.5-  1.0+    070704 B20  0.1-  0.9+    070716 470  0.7-  0.4+  

061212 104  0.2-  0.5-    070704 B20  0.1-  0.7+    070716 470  0.2-  0.8+  

061212 104  0.2-  0.4-    070704 B30  0.9+  0.7+    070716 470  0.6+  0.0   

061213 215  0.0   1.1-    070704 B30  0.3-  0.9+    070716 473  0.3+  0.0   

061213 215  0.0   0.8-    070704 B30  0.5-  0.3+    070716 118  0.3-  0.5+  

061213 215  0.2+  0.4-    070704 B30  0.6+  0.7+    070716 118  0.6-  0.2+  

061222 147  0.6+  1.0-    070705 A24  0.8-  0.1-    070716 118  0.4-  0.1+  

061222 147  0.6+  0.8-    070705 A24  0.1-  0.1+    070716 118  0.5-  0.0   

061222 147  0.7+  0.5-    070705 J51  0.4+  1.5-    070716 118  0.1-  0.3+  

061223 349  0.4+  0.4-    070705 A24  0.9-  0.1-    070716 118  0.6-  0.2+  

061223 349  0.3+  0.2-    070705 A24  0.0   0.3+    070716 118  0.6-  0.2+  

061223 349  0.4+  0.2-    070705 J51  1.0+  0.1+    070716 235  0.4-  0.1+  

061223 130  0.6+  1.0-    070705 379  0.8+  0.6+    070716 J51  0.3-  1.3+  

061223 130  0.6+  1.2-    070705 379  0.3+  0.5+    070716 J51  0.3-  1.1+  

061223 130  0.3+  1.1-    070705 349  0.7+  0.3+    070716 J51  0.2+  0.1+  

061223 130  0.1+  1.0-    070705 379  0.1+  0.9+    070716 A10  0.0   1.0+  

061223 204  0.0   1.0-    070705 349  0.8+  0.0     070716 A10  0.1+  0.8+  

061223 204  0.2+  0.8-    070705 379  0.8+  0.4+    070716 A10  0.1+  0.2+  

061225 213  0.0   0.8-    070705 349  0.6+  0.1+    070716 A10  0.2+  1.0+  

061225 213  0.0   0.6-    070705 470  1.1+  1.3+    070716 A10  0.1+  0.4+  

061225 204  0.2-  1.0-    070705 470  0.2-  1.0+    070717 850  0.4+  0.0   

061225 204  0.1-  0.8-    070705 470  0.1+  1.0+    070717 850  0.6+  0.2-  

061226 118  0.2+  0.5-    070705 213  0.4+  0.5+    070717 850  0.9+  0.0   

061226 118  0.1+  0.7-    070705 B20  0.2-  0.3+    070717 372  0.1+  1.0-  

061226 118  0.3+  0.7-    070705 B20  0.1+  0.6+    070717 372  0.4-  1.2-  

2007/                     070705 B20  0.3-  0.3+    070717 470  0.1-  0.8+  

070101 673  0.1+  0.7-    070705 235  0.8+  0.4+    070717 470  0.9-  0.7+  

070101 673  0.0   0.6-    070705 213  0.2+  1.0+    070717 470  0.4-  0.5+  

070101 673  0.1+  0.8-    070705 213  0.3+  0.9+    070717 585 (4.4+  8.5+) 

070101 673  0.4+  0.7-    070705 A10  0.4-  0.1+    070717 585 (5.8+  8.8+) 

070104 349  0.2-  0.8-    070705 A10  1.1+  0.8+    070717 235  0.0   0.1+  

070104 349  0.2+  0.7-    070705 A10  0.2-  0.2+    070717 585 (8.3+  3.5+) 

070113 204  0.3+  0.7-    070705 A10  0.4+  0.5+    070717 585 (5.8+  6.0+) 

070218 215  1.4+  0.2+    070705 A10  0.4+  0.9+    070717 585 (4.9+  6.4+) 

070312 B30  0.4+  0.8+    070705 A10  0.7+  1.0+    070717 458  0.1+  0.0   

070312 B30 (0.8-  2.9+)   070706 945  1.4-  0.6+    070717 458  0.5+  0.0   

070312 B30 (1.0-  4.5+)   070706 945  1.2-  0.3+    070717 458  0.3+  0.3+  

070323 B30 (0.2+  5.0+)   070706 945  1.7-  0.9+    070717 A10  0.0   0.9+  

070411 B30  1.1+  1.1+    070706 945  1.1-  0.4+    070717 A10  0.3+  0.5+  

070411 B30  0.8+  0.8+    070706 945  0.8-  0.6+    070717 A10  0.5+  0.4+  

070414 215  0.0   0.2+    070706 J47  0.9+  0.6-    070717 A10  0.0   0.2+  

070414 215  0.4+  0.2+    070706 J47  0.3-  0.0     070717 A10  0.3+  0.6+  

070414 215  0.6+  0.0     070706 235  0.2-  0.6+    070718 235  0.2+  0.1-  

070414 349  1.6+  0.7+    070706 J45 (7.5+  1.8+)   070718 J70  0.7+  0.5-  

070414 349  1.9+  0.5+    070706 J45 (7.2+  1.9+)   070718 J70  0.2+  0.9-  

070419 B30  1.6+  1.3-    070706 A10  0.5+  0.8+    070718 J70  0.3-  1.1-  

070419 B30 (2.6+  0.6-)   070706 A10  0.4+  0.5+    070718 J70  0.1+  1.8-  

070419 B30  1.3+  1.3+    070706 A10  0.6+  0.4+    070718 J70  0.3+  0.9-  

070425 349  0.7+  1.1+    070706 A10  0.8-  0.1-    070718 J70  0.3+  1.1-  

070425 349  0.5+  1.4+    070706 A10  0.3+  0.1+    070718 J70  0.3+  0.6-  

070426 H06  0.2+  0.2-    070706 J45 (7.8+  1.7+)   070718 J70  0.5+  0.8-  

070426 H06  0.5+  0.1+    070706 A10  0.6+  0.5+    070718 J70  0.2-  0.7-  

070427 349  0.9+  1.1+    070706 J45 (7.9+  1.4+)   070718 J70  0.2-  1.2-  

070427 349  1.3+  0.8+    070706 J45 (8.5+  1.7+)   070718 J70 (0.3-  2.0-) 

070504 349  0.8-  0.6+    070706 J48  1.2+  0.9+    070718 J70 (0.5-  2.7-) 

070504 349  0.9-  0.5+    070706 J48  0.4+  0.7+    070718 J70 (0.7-  2.6-) 

